Time,TemperatureF,DewpointF,PressureIn,WindDirection,WindDirectionDegrees,WindSpeedMPH,WindSpeedGustMPH,Humidity,HourlyPrecipIn,Conditions,Clouds,dailyrainin,SoftwareType,DateUTC
2013-05-24 00:00:00,64.1,60.1,29.86,ESE,116,1.0,3.0,87,0.00,,,0.21,HR-IXPWINDi_r2_v1.2.,2013-05-24 04:00:00,
2013-05-24 00:01:00,64.1,60.1,29.86,ESE,116,0.0,3.0,87,0.00,,,0.21,HR-IXPWINDi_r2_v1.2.,2013-05-24 04:01:00,
2013-05-24 00:06:00,64.2,60.2,29.86,ESE,116,1.0,2.0,87,0.00,,,0.00,HR-IXPWINDi_r2_v1.2.,2013-05-24 04:06:00,
2013-05-24 00:11:00,64.1,60.4,29.86,ESE,116,1.0,1.0,88,0.00,,,0.00,HR-IXPWINDi_r2_v1.2.,2013-05-24 04:11:00,
2013-05-24 00:16:00,64.1,60.1,29.86,SE,124,0.0,2.0,87,0.00,,,0.00,HR-IXPWINDi_r2_v1.2.,2013-05-24 04:16:00,
2013-05-24 00:21:00,64.0,60.6,29.86,SE,124,0.0,2.0,89,0.00,,,0.00,HR-IXPWINDi_r2_v1.2.,2013-05-24 04:21:00,
2013-05-24 00:26:00,63.9,60.2,29.86,SE,124,0.0,2.0,88,0.00,,,0.00,HR-IXPWINDi_r2_v1.2.,2013-05-24 04:26:00,
2013-05-24 00:32:00,63.8,59.8,29.86,SE,124,0.0,2.0,87,0.00,,,0.00,HR-IXPWINDi_r2_v1.2.,2013-05-24 04:32:00,
2013-05-24 00:37:00,63.8,59.5,29.86,East,97,0.0,3.0,86,0.00,,,0.00,HR-IXPWINDi_r2_v1.2.,2013-05-24 04:37:00,
2013-05-24 00:42:00,64.0,59.3,29.86,SE,142,0.0,3.0,85,0.00,,,0.00,HR-IXPWINDi_r2_v1.2.,2013-05-24 04:42:00,
2013-05-24 00:47:00,64.0,59.7,29.86,SE,142,0.0,2.0,86,0.00,,,0.00,HR-IXPWINDi_r2_v1.2.,2013-05-24 04:47:00,
2013-05-24 00:52:00,64.0,59.7,29.86,SE,142,0.0,2.0,86,0.00,,,0.00,HR-IXPWINDi_r2_v1.2.,2013-05-24 04:52:00,
2013-05-24 00:58:00,64.0,59.3,29.86,SSE,155,1.0,5.0,85,0.00,,,0.00,HR-IXPWINDi_r2_v1.2.,2013-05-24 04:58:00,
2013-05-24 01:03:00,64.0,59.3,29.86,ENE,71,0.0,5.0,85,0.00,,,0.00,HR-IXPWINDi_r2_v1.2.,2013-05-24 05:03:00,
2013-05-24 01:08:00,64.0,59.0,29.86,ENE,71,0.0,4.0,84,0.00,,,0.00,HR-IXPWINDi_r2_v1.2.,2013-05-24 05:08:00,
2013-05-24 01:13:00,63.9,58.9,29.86,East,92,0.0,4.0,84,0.00,,,0.00,HR-IXPWINDi_r2_v1.2.,2013-05-24 05:13:00,
2013-05-24 01:19:00,63.9,58.9,29.86,SSE,147,1.0,3.0,84,0.00,,,0.00,HR-IXPWINDi_r2_v1.2.,2013-05-24 05:19:00,
2013-05-24 01:24:00,63.8,59.1,29.86,ESE,118,0.0,3.0,85,0.00,,,0.00,HR-IXPWINDi_r2_v1.2.,2013-05-24 05:24:00,
2013-05-24 01:29:00,63.6,59.3,29.86,East,92,0.0,5.0,86,0.00,,,0.00,HR-IXPWINDi_r2_v1.2.,2013-05-24 05:29:00,
2013-05-24 01:34:00,63.5,59.2,29.86,East,89,0.0,5.0,86,0.00,,,0.00,HR-IXPWINDi_r2_v1.2.,2013-05-24 05:34:00,
2013-05-24 01:39:00,63.4,59.4,29.86,East,89,1.0,3.0,87,0.00,,,0.00,HR-IXPWINDi_r2_v1.2.,2013-05-24 05:39:00,
2013-05-24 01:45:00,63.2,60.2,29.86,NNE,28,0.0,3.0,90,0.00,,,0.00,HR-IXPWINDi_r2_v1.2.,2013-05-24 05:45:00,
2013-05-24 01:50:00,63.0,60.0,29.86,NNE,24,0.0,3.0,90,0.00,,,0.00,HR-IXPWINDi_r2_v1.2.,2013-05-24 05:50:00,
2013-05-24 01:55:00,62.7,59.0,29.86,NNE,24,1.0,3.0,88,0.00,,,0.00,HR-IXPWINDi_r2_v1.2.,2013-05-24 05:55:00,
2013-05-24 02:00:00,62.6,58.6,29.85,East,98,0.0,2.0,87,0.00,,,0.00,HR-IXPWINDi_r2_v1.2.,2013-05-24 06:00:00,
2013-05-24 02:05:00,62.6,58.3,29.85,ESE,119,0.0,3.0,86,0.00,,,0.00,HR-IXPWINDi_r2_v1.2.,2013-05-24 06:05:00,
2013-05-24 02:10:00,62.7,58.7,29.85,ESE,116,1.0,3.0,87,0.00,,,0.00,HR-IXPWINDi_r2_v1.2.,2013-05-24 06:10:00,
2013-05-24 02:15:00,62.7,58.4,29.85,SSE,147,1.0,4.0,86,0.00,,,0.00,HR-IXPWINDi_r2_v1.2.,2013-05-24 06:15:00,
2013-05-24 02:20:00,62.7,58.1,29.85,SSE,147,0.0,4.0,85,0.00,,,0.00,HR-IXPWINDi_r2_v1.2.,2013-05-24 06:20:00,
2013-05-24 02:26:00,62.7,58.1,29.85,SSE,147,0.0,2.0,85,0.00,,,0.00,HR-IXPWINDi_r2_v1.2.,2013-05-24 06:26:00,
2013-05-24 02:31:00,62.6,58.0,29.85,East,83,1.0,3.0,85,0.00,,,0.00,HR-IXPWINDi_r2_v1.2.,2013-05-24 06:31:00,
2013-05-24 02:36:00,62.5,58.2,29.84,East,83,0.0,3.0,86,0.00,,,0.00,HR-IXPWINDi_r2_v1.2.,2013-05-24 06:36:00,
2013-05-24 02:41:00,62.3,57.7,29.85,ESE,115,0.0,3.0,85,0.00,,,0.00,HR-IXPWINDi_r2_v1.2.,2013-05-24 06:41:00,
2013-05-24 02:46:00,62.1,57.8,29.84,ESE,115,0.0,3.0,86,0.00,,,0.00,HR-IXPWINDi_r2_v1.2.,2013-05-24 06:46:00,
2013-05-24 02:51:00,62.0,57.7,29.84,East,88,0.0,3.0,86,0.00,,,0.00,HR-IXPWINDi_r2_v1.2.,2013-05-24 06:51:00,
2013-05-24 02:56:00,61.8,57.5,29.84,East,85,0.0,5.0,86,0.00,,,0.00,HR-IXPWINDi_r2_v1.2.,2013-05-24 06:56:00,
2013-05-24 03:02:00,61.7,57.1,29.84,NE,51,2.0,5.0,85,0.00,,,0.00,HR-IXPWINDi_r2_v1.2.,2013-05-24 07:02:00,
2013-05-24 03:07:00,61.6,57.3,29.84,NE,51,0.0,4.0,86,0.00,,,0.00,HR-IXPWINDi_r2_v1.2.,2013-05-24 07:07:00,
2013-05-24 03:12:00,61.5,57.8,29.84,NE,51,0.0,2.0,88,0.00,,,0.00,HR-IXPWINDi_r2_v1.2.,2013-05-24 07:12:00,
2013-05-24 03:17:00,61.3,58.0,29.83,NE,51,0.0,1.0,89,0.00,,,0.00,HR-IXPWINDi_r2_v1.2.,2013-05-24 07:17:00,
2013-05-24 03:22:00,61.0,57.7,29.83,NE,51,0.0,1.0,89,0.00,,,0.00,HR-IXPWINDi_r2_v1.2.,2013-05-24 07:22:00,
2013-05-24 03:27:00,60.8,57.2,29.83,NNE,30,0.0,4.0,88,0.00,,,0.00,HR-IXPWINDi_r2_v1.2.,2013-05-24 07:27:00,
2013-05-24 03:33:00,60.7,57.1,29.83,NNE,30,0.0,4.0,88,0.00,,,0.00,HR-IXPWINDi_r2_v1.2.,2013-05-24 07:33:00,
2013-05-24 03:38:00,60.7,57.1,29.83,NE,40,0.0,2.0,88,0.00,,,0.00,HR-IXPWINDi_r2_v1.2.,2013-05-24 07:38:00,
2013-05-24 03:43:00,60.7,56.7,29.83,NE,40,0.0,3.0,87,0.00,,,0.00,HR-IXPWINDi_r2_v1.2.,2013-05-24 07:43:00,
2013-05-24 03:48:00,60.8,56.5,29.83,NE,54,0.0,3.0,86,0.00,,,0.00,HR-IXPWINDi_r2_v1.2.,2013-05-24 07:48:00,
2013-05-24 03:53:00,60.9,57.3,29.83,NE,54,0.0,3.0,88,0.00,,,0.00,HR-IXPWINDi_r2_v1.2.,2013-05-24 07:53:00,
2013-05-24 03:59:00,60.8,56.5,29.83,East,80,0.0,3.0,86,0.00,,,0.00,HR-IXPWINDi_r2_v1.2.,2013-05-24 07:59:00,
2013-05-24 04:04:00,60.9,57.3,29.84,ENE,67,0.0,3.0,88,0.00,,,0.00,HR-IXPWINDi_r2_v1.2.,2013-05-24 08:04:00,
2013-05-24 04:09:00,60.9,56.6,29.84,NNE,24,2.0,6.0,86,0.00,,,0.00,HR-IXPWINDi_r2_v1.2.,2013-05-24 08:09:00,
2013-05-24 04:14:00,61.1,56.8,29.84,ENE,58,1.0,6.0,86,0.00,,,0.00,HR-IXPWINDi_r2_v1.2.,2013-05-24 08:14:00,
2013-05-24 04:19:00,61.0,56.7,29.84,ENE,58,0.0,3.0,86,0.00,,,0.00,HR-IXPWINDi_r2_v1.2.,2013-05-24 08:19:00,
2013-05-24 04:24:00,60.9,56.6,29.84,ENE,58,0.0,3.0,86,0.00,,,0.00,HR-IXPWINDi_r2_v1.2.,2013-05-24 08:24:00,
2013-05-24 04:29:00,60.8,56.8,29.84,ENE,58,0.0,2.0,87,0.00,,,0.00,HR-IXPWINDi_r2_v1.2.,2013-05-24 08:29:00,
2013-05-24 04:34:00,60.7,57.1,29.84,NE,51,1.0,4.0,88,0.00,,,0.00,HR-IXPWINDi_r2_v1.2.,2013-05-24 08:34:00,
2013-05-24 04:40:00,60.7,56.4,29.84,NE,46,3.0,5.0,86,0.00,,,0.00,HR-IXPWINDi_r2_v1.2.,2013-05-24 08:40:00,
2013-05-24 04:45:00,60.8,56.5,29.84,NNW,340,0.0,5.0,86,0.00,,,0.00,HR-IXPWINDi_r2_v1.2.,2013-05-24 08:45:00,
2013-05-24 04:50:00,60.8,56.8,29.84,North,350,0.0,4.0,87,0.00,,,0.00,HR-IXPWINDi_r2_v1.2.,2013-05-24 08:50:00,
2013-05-24 04:55:00,60.6,56.6,29.84,NNE,27,0.0,3.0,87,0.00,,,0.00,HR-IXPWINDi_r2_v1.2.,2013-05-24 08:55:00,
2013-05-24 05:00:00,60.4,56.4,29.84,NNE,27,0.0,3.0,87,0.00,,,0.00,HR-IXPWINDi_r2_v1.2.,2013-05-24 09:00:00,
2013-05-24 05:05:00,60.2,56.6,29.84,NE,40,0.0,4.0,88,0.00,,,0.00,HR-IXPWINDi_r2_v1.2.,2013-05-24 09:05:00,
2013-05-24 05:11:00,60.2,56.9,29.85,NE,40,0.0,4.0,89,0.00,,,0.00,HR-IXPWINDi_r2_v1.2.,2013-05-24 09:11:00,
2013-05-24 05:16:00,60.2,56.6,29.85,NE,34,1.0,3.0,88,0.00,,,0.00,HR-IXPWINDi_r2_v1.2.,2013-05-24 09:16:00,
2013-05-24 05:21:00,60.3,57.0,29.85,NE,34,0.0,3.0,89,0.00,,,0.00,HR-IXPWINDi_r2_v1.2.,2013-05-24 09:21:00,
2013-05-24 05:26:00,60.3,56.3,29.85,NE,40,0.0,4.0,87,0.00,,,0.00,HR-IXPWINDi_r2_v1.2.,2013-05-24 09:26:00,
2013-05-24 05:31:00,60.4,56.4,29.85,NE,44,2.0,4.0,87,0.00,,,0.00,HR-IXPWINDi_r2_v1.2.,2013-05-24 09:31:00,
2013-05-24 05:36:00,60.9,56.6,29.85,North,350,1.0,7.0,86,0.00,,,0.00,HR-IXPWINDi_r2_v1.2.,2013-05-24 09:36:00,
2013-05-24 05:41:00,61.2,55.9,29.86,NE,45,1.0,7.0,83,0.00,,,0.00,HR-IXPWINDi_r2_v1.2.,2013-05-24 09:41:00,
2013-05-24 05:46:00,61.2,55.6,29.86,NE,49,0.0,7.0,82,0.00,,,0.00,HR-IXPWINDi_r2_v1.2.,2013-05-24 09:46:00,
2013-05-24 05:51:00,61.1,55.8,29.86,NE,34,5.0,5.0,83,0.00,,,0.00,HR-IXPWINDi_r2_v1.2.,2013-05-24 09:51:00,
2013-05-24 05:57:00,61.0,55.7,29.86,NE,51,1.0,5.0,83,0.00,,,0.00,HR-IXPWINDi_r2_v1.2.,2013-05-24 09:57:00,
2013-05-24 06:02:00,61.2,54.9,29.86,ENE,67,0.0,9.0,80,0.00,,,0.00,HR-IXPWINDi_r2_v1.2.,2013-05-24 10:02:00,
2013-05-24 06:07:00,61.2,54.6,29.87,NE,36,1.0,9.0,79,0.00,,,0.00,HR-IXPWINDi_r2_v1.2.,2013-05-24 10:07:00,
2013-05-24 06:12:00,61.6,54.6,29.87,East,82,1.0,9.0,78,0.00,,,0.00,HR-IXPWINDi_r2_v1.2.,2013-05-24 10:12:00,
2013-05-24 06:18:00,61.7,54.0,29.87,North,9,0.0,9.0,76,0.00,,,0.00,HR-IXPWINDi_r2_v1.2.,2013-05-24 10:18:00,
2013-05-24 06:23:00,61.7,54.7,29.88,NE,51,3.0,8.0,78,0.00,,,0.00,HR-IXPWINDi_r2_v1.2.,2013-05-24 10:23:00,
2013-05-24 06:28:00,61.6,55.3,29.88,NE,42,0.0,7.0,80,0.00,,,0.00,HR-IXPWINDi_r2_v1.2.,2013-05-24 10:28:00,
2013-05-24 06:33:00,61.3,54.3,29.88,NE,46,2.0,7.0,78,0.00,,,0.00,HR-IXPWINDi_r2_v1.2.,2013-05-24 10:33:00,
2013-05-24 06:38:00,61.2,53.9,29.89,North,360,4.0,8.0,77,0.00,,,0.00,HR-IXPWINDi_r2_v1.2.,2013-05-24 10:38:00,
2013-05-24 06:43:00,61.3,54.7,29.89,NNE,13,2.0,8.0,79,0.00,,,0.00,HR-IXPWINDi_r2_v1.2.,2013-05-24 10:43:00,
2013-05-24 06:49:00,61.1,55.8,29.89,North,360,3.0,6.0,83,0.00,,,0.00,HR-IXPWINDi_r2_v1.2.,2013-05-24 10:49:00,
2013-05-24 06:54:00,60.7,54.8,29.90,NNW,337,1.0,5.0,81,0.00,,,0.00,HR-IXPWINDi_r2_v1.2.,2013-05-24 10:54:00,
2013-05-24 06:59:00,60.5,53.9,29.90,North,350,3.0,7.0,79,0.00,,,0.00,HR-IXPWINDi_r2_v1.2.,2013-05-24 10:59:00,
2013-05-24 07:04:00,60.3,53.7,29.90,North,360,4.0,7.0,79,0.00,,,0.00,HR-IXPWINDi_r2_v1.2.,2013-05-24 11:04:00,
2013-05-24 07:09:00,59.8,54.6,29.91,NNE,15,2.0,6.0,83,0.00,,,0.00,HR-IXPWINDi_r2_v1.2.,2013-05-24 11:09:00,
2013-05-24 07:15:00,59.2,53.0,29.91,ENE,65,2.0,8.0,80,0.00,,,0.00,HR-IXPWINDi_r2_v1.2.,2013-05-24 11:15:00,
2013-05-24 07:20:00,58.7,52.5,29.91,NNE,19,2.0,8.0,80,0.00,,,0.00,HR-IXPWINDi_r2_v1.2.,2013-05-24 11:20:00,
2013-05-24 07:25:00,58.4,51.9,29.92,SE,126,2.0,5.0,79,0.00,,,0.00,HR-IXPWINDi_r2_v1.2.,2013-05-24 11:25:00,
2013-05-24 07:30:00,58.2,50.6,29.93,NNE,28,6.0,8.0,76,0.00,,,0.00,HR-IXPWINDi_r2_v1.2.,2013-05-24 11:30:00,
2013-05-24 07:35:00,58.0,50.1,29.93,North,11,3.0,8.0,75,0.00,,,0.00,HR-IXPWINDi_r2_v1.2.,2013-05-24 11:35:00,
2013-05-24 07:40:00,57.8,50.6,29.94,NNE,20,3.0,8.0,77,0.00,,,0.00,HR-IXPWINDi_r2_v1.2.,2013-05-24 11:40:00,
2013-05-24 07:45:00,57.5,50.3,29.94,NE,38,4.0,8.0,77,0.00,,,0.00,HR-IXPWINDi_r2_v1.2.,2013-05-24 11:45:00,
2013-05-24 07:51:00,57.3,50.1,29.94,North,5,3.0,8.0,77,0.00,,,0.00,HR-IXPWINDi_r2_v1.2.,2013-05-24 11:51:00,
2013-05-24 07:56:00,57.1,49.5,29.95,NNW,333,3.0,8.0,76,0.00,,,0.00,HR-IXPWINDi_r2_v1.2.,2013-05-24 11:56:00,
2013-05-24 08:01:00,56.7,49.2,29.95,NNE,28,1.0,10.0,76,0.00,,,0.00,HR-IXPWINDi_r2_v1.2.,2013-05-24 12:01:00,
2013-05-24 08:06:00,56.4,48.9,29.96,North,5,2.0,10.0,76,0.00,,,0.00,HR-IXPWINDi_r2_v1.2.,2013-05-24 12:06:00,
2013-05-24 08:11:00,56.2,49.0,29.96,NE,53,7.0,8.0,77,0.00,,,0.00,HR-IXPWINDi_r2_v1.2.,2013-05-24 12:11:00,
2013-05-24 08:17:00,55.7,47.1,29.96,North,5,3.0,9.0,73,0.00,,,0.00,HR-IXPWINDi_r2_v1.2.,2013-05-24 12:17:00,
2013-05-24 08:22:00,55.4,47.2,29.97,NE,53,2.0,9.0,74,0.00,,,0.00,HR-IXPWINDi_r2_v1.2.,2013-05-24 12:22:00,
2013-05-24 08:27:00,55.2,47.4,29.96,SSE,158,2.0,12.0,75,0.00,,,0.00,HR-IXPWINDi_r2_v1.2.,2013-05-24 12:27:00,
2013-05-24 08:32:00,55.2,47.7,29.96,NNW,333,3.0,12.0,76,0.00,,,0.00,HR-IXPWINDi_r2_v1.2.,2013-05-24 12:32:00,
2013-05-24 08:37:00,55.3,47.1,29.97,NE,40,1.0,9.0,74,0.00,,,0.00,HR-IXPWINDi_r2_v1.2.,2013-05-24 12:37:00,
2013-05-24 08:43:00,55.4,47.9,29.97,NNE,32,4.0,10.0,76,0.00,,,0.00,HR-IXPWINDi_r2_v1.2.,2013-05-24 12:43:00,
2013-05-24 08:48:00,55.2,46.6,29.98,ENE,77,2.0,11.0,73,0.00,,,0.00,HR-IXPWINDi_r2_v1.2.,2013-05-24 12:48:00,
2013-05-24 08:53:00,55.1,46.2,29.98,NNW,345,3.0,11.0,72,0.00,,,0.00,HR-IXPWINDi_r2_v1.2.,2013-05-24 12:53:00,
2013-05-24 08:59:00,55.1,47.3,29.99,NNE,25,4.0,7.0,75,0.00,,,0.00,HR-IXPWINDi_r2_v1.2.,2013-05-24 12:59:00,
2013-05-24 09:04:00,55.0,47.5,29.99,NNE,33,4.0,5.0,76,0.00,,,0.00,HR-IXPWINDi_r2_v1.2.,2013-05-24 13:04:00,
2013-05-24 09:09:00,55.0,48.2,29.99,North,5,3.0,8.0,78,0.00,,,0.00,HR-IXPWINDi_r2_v1.2.,2013-05-24 13:09:00,
2013-05-24 09:14:00,55.0,48.2,30.00,NNE,21,3.0,8.0,78,0.00,,,0.00,HR-IXPWINDi_r2_v1.2.,2013-05-24 13:14:00,
2013-05-24 09:20:00,54.9,47.4,30.00,NE,43,3.0,10.0,76,0.00,,,0.00,HR-IXPWINDi_r2_v1.2.,2013-05-24 13:20:00,
2013-05-24 09:25:00,54.6,47.5,30.01,NNE,15,3.0,12.0,77,0.00,,,0.00,HR-IXPWINDi_r2_v1.2.,2013-05-24 13:25:00,
2013-05-24 09:30:00,54.8,47.0,30.01,NE,35,7.0,12.0,75,0.00,,,0.00,HR-IXPWINDi_r2_v1.2.,2013-05-24 13:30:00,
2013-05-24 09:35:00,55.3,46.0,30.01,North,5,3.0,10.0,71,0.00,,,0.00,HR-IXPWINDi_r2_v1.2.,2013-05-24 13:35:00,
2013-05-24 09:40:00,55.5,46.2,30.01,NNW,327,5.0,10.0,71,0.00,,,0.00,HR-IXPWINDi_r2_v1.2.,2013-05-24 13:40:00,
2013-05-24 09:46:00,55.6,46.3,30.02,NNW,338,3.0,11.0,71,0.00,,,0.00,HR-IXPWINDi_r2_v1.2.,2013-05-24 13:46:00,
2013-05-24 09:51:00,56.0,46.7,30.03,NE,45,3.0,11.0,71,0.00,,,0.00,HR-IXPWINDi_r2_v1.2.,2013-05-24 13:51:00,
2013-05-24 09:56:00,56.4,48.2,30.03,NNW,342,3.0,10.0,74,0.00,,,0.00,HR-IXPWINDi_r2_v1.2.,2013-05-24 13:56:00,
2013-05-24 10:01:00,56.1,46.0,30.03,NNE,31,2.0,13.0,69,0.00,,,0.00,HR-IXPWINDi_r2_v1.2.,2013-05-24 14:01:00,
2013-05-24 10:06:00,55.9,46.2,30.04,NW,322,3.0,13.0,70,0.00,,,0.00,HR-IXPWINDi_r2_v1.2.,2013-05-24 14:06:00,
2013-05-24 10:12:00,56.3,47.0,30.04,NNE,24,3.0,9.0,71,0.00,,,0.00,HR-IXPWINDi_r2_v1.2.,2013-05-24 14:12:00,
2013-05-24 10:17:00,56.7,46.2,30.05,NNW,343,4.0,12.0,68,0.00,,,0.00,HR-IXPWINDi_r2_v1.2.,2013-05-24 14:17:00,
2013-05-24 10:22:00,57.0,46.5,30.05,East,88,5.0,12.0,68,0.00,,,0.00,HR-IXPWINDi_r2_v1.2.,2013-05-24 14:22:00,
2013-05-24 10:27:00,57.3,47.9,30.05,North,355,3.0,9.0,71,0.00,,,0.00,HR-IXPWINDi_r2_v1.2.,2013-05-24 14:27:00,
2013-05-24 10:32:00,57.4,46.5,30.05,North,11,3.0,9.0,67,0.00,,,0.00,HR-IXPWINDi_r2_v1.2.,2013-05-24 14:32:00,
2013-05-24 10:38:00,57.8,47.6,30.05,North,350,2.0,8.0,69,0.00,,,0.00,HR-IXPWINDi_r2_v1.2.,2013-05-24 14:38:00,
2013-05-24 10:43:00,58.0,46.7,30.06,North,5,1.0,7.0,66,0.00,,,0.00,HR-IXPWINDi_r2_v1.2.,2013-05-24 14:43:00,
2013-05-24 10:48:00,58.1,48.3,30.06,North,355,2.0,9.0,70,0.00,,,0.00,HR-IXPWINDi_r2_v1.2.,2013-05-24 14:48:00,
2013-05-24 10:53:00,57.9,47.0,30.06,North,10,8.0,12.0,67,0.00,,,0.00,HR-IXPWINDi_r2_v1.2.,2013-05-24 14:53:00,
2013-05-24 10:58:00,56.6,45.3,30.07,ESE,115,0.0,12.0,66,0.00,,,0.00,HR-IXPWINDi_r2_v1.2.,2013-05-24 14:58:00,
2013-05-24 11:04:00,55.7,46.0,30.07,NNE,24,3.0,8.0,70,0.00,,,0.00,HR-IXPWINDi_r2_v1.2.,2013-05-24 15:04:00,
2013-05-24 11:09:00,55.4,45.3,30.07,NE,50,6.0,10.0,69,0.00,,,0.00,HR-IXPWINDi_r2_v1.2.,2013-05-24 15:09:00,
2013-05-24 11:14:00,55.1,45.1,30.07,North,10,0.0,10.0,69,0.00,,,0.00,HR-IXPWINDi_r2_v1.2.,2013-05-24 15:14:00,
2013-05-24 11:19:00,54.9,44.1,30.08,NW,310,0.0,12.0,67,0.00,,,0.00,HR-IXPWINDi_r2_v1.2.,2013-05-24 15:19:00,
2013-05-24 11:24:00,54.8,45.2,30.08,NNE,17,2.0,12.0,70,0.00,,,0.00,HR-IXPWINDi_r2_v1.2.,2013-05-24 15:24:00,
2013-05-24 11:29:00,54.6,45.3,30.09,NE,34,3.0,10.0,71,0.00,,,0.00,HR-IXPWINDi_r2_v1.2.,2013-05-24 15:29:00,
2013-05-24 11:34:00,54.5,44.9,30.09,East,90,0.0,10.0,70,0.00,,,0.00,HR-IXPWINDi_r2_v1.2.,2013-05-24 15:34:00,
2013-05-24 11:40:00,54.3,45.4,30.09,NE,34,2.0,10.0,72,0.00,,,0.00,HR-IXPWINDi_r2_v1.2.,2013-05-24 15:40:00,
2013-05-24 11:45:00,54.0,45.1,30.10,WNW,300,0.0,9.0,72,0.00,,,0.00,HR-IXPWINDi_r2_v1.2.,2013-05-24 15:45:00,
2013-05-24 11:50:00,53.9,43.9,30.10,NNE,32,3.0,9.0,69,0.00,,,0.00,HR-IXPWINDi_r2_v1.2.,2013-05-24 15:50:00,
2013-05-24 11:55:00,53.9,43.9,30.10,NE,46,4.0,7.0,69,0.00,,,0.00,HR-IXPWINDi_r2_v1.2.,2013-05-24 15:55:00,
2013-05-24 12:00:00,54.1,44.9,30.10,NW,304,3.0,7.0,71,0.00,,,0.00,HR-IXPWINDi_r2_v1.2.,2013-05-24 16:00:00,
2013-05-24 12:06:00,54.5,44.9,30.10,NNE,15,1.0,7.0,70,0.00,,,0.00,HR-IXPWINDi_r2_v1.2.,2013-05-24 16:06:00,
2013-05-24 12:11:00,54.6,44.2,30.10,North,5,3.0,8.0,68,0.00,,,0.00,HR-IXPWINDi_r2_v1.2.,2013-05-24 16:11:00,
2013-05-24 12:16:00,54.8,45.9,30.10,NW,320,2.0,8.0,72,0.00,,,0.00,HR-IXPWINDi_r2_v1.2.,2013-05-24 16:16:00,
2013-05-24 12:22:00,55.3,44.1,30.10,NNW,346,2.0,6.0,66,0.00,,,0.00,HR-IXPWINDi_r2_v1.2.,2013-05-24 16:22:00,
2013-05-24 12:27:00,55.3,45.3,30.10,East,86,0.0,11.0,69,0.00,,,0.00,HR-IXPWINDi_r2_v1.2.,2013-05-24 16:27:00,
2013-05-24 12:33:00,55.3,44.5,30.11,North,5,7.0,11.0,67,0.00,,,0.00,HR-IXPWINDi_r2_v1.2.,2013-05-24 16:33:00,
2013-05-24 12:38:00,55.3,45.6,30.11,NW,326,2.0,9.0,70,0.00,,,0.00,HR-IXPWINDi_r2_v1.2.,2013-05-24 16:38:00,
2013-05-24 12:43:00,55.9,45.1,30.11,WNW,297,2.0,7.0,67,0.00,,,0.00,HR-IXPWINDi_r2_v1.2.,2013-05-24 16:43:00,
2013-05-24 12:48:00,56.0,45.5,30.11,NNE,13,4.0,8.0,68,0.00,,,0.00,HR-IXPWINDi_r2_v1.2.,2013-05-24 16:48:00,
2013-05-24 12:53:00,55.7,44.9,30.11,ENE,69,5.0,9.0,67,0.00,,,0.00,HR-IXPWINDi_r2_v1.2.,2013-05-24 16:53:00,
2013-05-24 12:59:00,56.0,45.1,30.11,ENE,75,1.0,9.0,67,0.00,,,0.00,HR-IXPWINDi_r2_v1.2.,2013-05-24 16:59:00,
2013-05-24 13:04:00,56.4,45.9,30.11,NE,44,1.0,8.0,68,0.00,,,0.00,HR-IXPWINDi_r2_v1.2.,2013-05-24 17:04:00,
2013-05-24 13:09:00,56.2,45.3,30.11,NE,51,3.0,12.0,67,0.00,,,0.00,HR-IXPWINDi_r2_v1.2.,2013-05-24 17:09:00,
2013-05-24 13:14:00,56.1,45.2,30.11,NE,44,2.0,12.0,67,0.00,,,0.00,HR-IXPWINDi_r2_v1.2.,2013-05-24 17:14:00,
2013-05-24 13:19:00,55.9,45.4,30.11,NNE,26,2.0,6.0,68,0.00,,,0.00,HR-IXPWINDi_r2_v1.2.,2013-05-24 17:19:00,
2013-05-24 13:25:00,56.0,44.4,30.12,NE,34,3.0,10.0,65,0.00,,,0.00,HR-IXPWINDi_r2_v1.2.,2013-05-24 17:25:00,
2013-05-24 13:30:00,56.0,42.7,30.12,North,355,4.0,11.0,61,0.00,,,0.00,HR-IXPWINDi_r2_v1.2.,2013-05-24 17:30:00,
2013-05-24 13:35:00,56.2,44.5,30.12,NNW,335,5.0,11.0,65,0.00,,,0.00,HR-IXPWINDi_r2_v1.2.,2013-05-24 17:35:00,
2013-05-24 13:40:00,56.4,44.3,30.12,NNE,12,3.0,5.0,64,0.00,,,0.00,HR-IXPWINDi_r2_v1.2.,2013-05-24 17:40:00,
2013-05-24 13:46:00,56.9,43.1,30.12,ENE,68,3.0,7.0,60,0.00,,,0.00,HR-IXPWINDi_r2_v1.2.,2013-05-24 17:46:00,
2013-05-24 13:51:00,56.8,43.9,30.13,North,349,0.0,7.0,62,0.00,,,0.00,HR-IXPWINDi_r2_v1.2.,2013-05-24 17:51:00,
2013-05-24 13:56:00,56.6,41.5,30.13,NNE,12,1.0,8.0,57,0.00,,,0.00,HR-IXPWINDi_r2_v1.2.,2013-05-24 17:56:00,
2013-05-24 14:02:00,57.3,44.3,30.13,NE,53,5.0,8.0,62,0.00,,,0.00,HR-IXPWINDi_r2_v1.2.,2013-05-24 18:02:00,
2013-05-24 14:07:00,57.7,45.1,30.13,NNE,15,4.0,7.0,63,0.00,,,0.00,HR-IXPWINDi_r2_v1.2.,2013-05-24 18:07:00,
2013-05-24 14:12:00,57.3,41.2,30.13,SSW,209,3.0,7.0,55,0.00,,,0.00,HR-IXPWINDi_r2_v1.2.,2013-05-24 18:12:00,
2013-05-24 14:17:00,57.2,41.1,30.13,NNE,28,4.0,11.0,55,0.00,,,0.00,HR-IXPWINDi_r2_v1.2.,2013-05-24 18:17:00,
2013-05-24 14:22:00,57.2,43.0,30.13,North,355,3.0,11.0,59,0.00,,,0.00,HR-IXPWINDi_r2_v1.2.,2013-05-24 18:22:00,
2013-05-24 14:27:00,58.0,43.3,30.12,NE,36,1.0,9.0,58,0.00,,,0.00,HR-IXPWINDi_r2_v1.2.,2013-05-24 18:27:00,
2013-05-24 14:32:00,58.4,42.7,30.12,NNW,346,2.0,9.0,56,0.00,,,0.00,HR-IXPWINDi_r2_v1.2.,2013-05-24 18:32:00,
2013-05-24 14:38:00,58.5,42.3,30.13,NE,45,4.0,9.0,55,0.00,,,0.00,HR-IXPWINDi_r2_v1.2.,2013-05-24 18:38:00,
2013-05-24 14:43:00,59.0,41.4,30.12,ENE,71,4.0,9.0,52,0.00,,,0.00,HR-IXPWINDi_r2_v1.2.,2013-05-24 18:43:00,
2013-05-24 14:48:00,59.5,42.8,30.12,North,9,3.0,9.0,54,0.00,,,0.00,HR-IXPWINDi_r2_v1.2.,2013-05-24 18:48:00,
2013-05-24 14:53:00,59.8,41.6,30.13,NE,37,3.0,8.0,51,0.00,,,0.00,HR-IXPWINDi_r2_v1.2.,2013-05-24 18:53:00,
2013-05-24 14:58:00,60.3,42.1,30.13,North,5,1.0,8.0,51,0.00,,,0.00,HR-IXPWINDi_r2_v1.2.,2013-05-24 18:58:00,
2013-05-24 15:03:00,60.7,41.9,30.13,NE,55,3.0,5.0,50,0.00,,,0.00,HR-IXPWINDi_r2_v1.2.,2013-05-24 19:03:00,
2013-05-24 15:09:00,60.3,42.6,30.13,ENE,60,0.0,8.0,52,0.00,,,0.00,HR-IXPWINDi_r2_v1.2.,2013-05-24 19:09:00,
2013-05-24 15:14:00,60.1,40.3,30.13,NE,43,3.0,8.0,48,0.00,,,0.00,HR-IXPWINDi_r2_v1.2.,2013-05-24 19:14:00,
2013-05-24 15:19:00,59.5,40.3,30.13,North,10,5.0,8.0,49,0.00,,,0.00,HR-IXPWINDi_r2_v1.2.,2013-05-24 19:19:00,
2013-05-24 15:24:00,59.0,39.8,30.13,NE,45,1.0,6.0,49,0.00,,,0.00,HR-IXPWINDi_r2_v1.2.,2013-05-24 19:24:00,
2013-05-24 15:29:00,58.1,39.5,30.13,WNW,300,0.0,8.0,50,0.00,,,0.00,HR-IXPWINDi_r2_v1.2.,2013-05-24 19:29:00,
2013-05-24 15:35:00,57.9,39.8,30.13,North,5,2.0,9.0,51,0.00,,,0.00,HR-IXPWINDi_r2_v1.2.,2013-05-24 19:35:00,
2013-05-24 15:40:00,58.9,40.3,30.13,NNW,333,3.0,11.0,50,0.00,,,0.00,HR-IXPWINDi_r2_v1.2.,2013-05-24 19:40:00,
2013-05-24 15:45:00,59.5,38.1,30.12,ENE,70,1.0,11.0,45,0.00,,,0.00,HR-IXPWINDi_r2_v1.2.,2013-05-24 19:45:00,
2013-05-24 15:51:00,60.0,40.2,30.13,NNE,21,3.0,13.0,48,0.00,,,0.00,HR-IXPWINDi_r2_v1.2.,2013-05-24 19:51:00,
2013-05-24 15:56:00,60.5,40.1,30.13,ENE,57,0.0,13.0,47,0.00,,,0.00,HR-IXPWINDi_r2_v1.2.,2013-05-24 19:56:00,
2013-05-24 16:01:00,60.8,41.5,30.12,SSW,197,3.0,10.0,49,0.00,,,0.00,HR-IXPWINDi_r2_v1.2.,2013-05-24 20:01:00,
2013-05-24 16:06:00,60.4,38.4,30.12,SE,141,2.0,9.0,44,0.00,,,0.00,HR-IXPWINDi_r2_v1.2.,2013-05-24 20:06:00,
2013-05-24 16:11:00,60.5,40.7,30.12,SSW,192,5.0,11.0,48,0.00,,,0.00,HR-IXPWINDi_r2_v1.2.,2013-05-24 20:11:00,
2013-05-24 16:17:00,60.7,39.2,30.11,NNE,14,2.0,11.0,45,0.00,,,0.00,HR-IXPWINDi_r2_v1.2.,2013-05-24 20:17:00,
2013-05-24 16:22:00,60.9,41.6,30.11,ENE,77,3.0,10.0,49,0.00,,,0.00,HR-IXPWINDi_r2_v1.2.,2013-05-24 20:22:00,
2013-05-24 16:27:00,60.7,39.8,30.11,ESE,113,3.0,12.0,46,0.00,,,0.00,HR-IXPWINDi_r2_v1.2.,2013-05-24 20:27:00,
2013-05-24 16:32:00,60.7,40.9,30.11,North,5,3.0,12.0,48,0.00,,,0.00,HR-IXPWINDi_r2_v1.2.,2013-05-24 20:32:00,
2013-05-24 16:38:00,60.6,38.5,30.12,NNW,333,6.0,11.0,44,0.00,,,0.00,HR-IXPWINDi_r2_v1.2.,2013-05-24 20:38:00,
2013-05-24 16:43:00,60.6,39.1,30.11,North,360,2.0,10.0,45,0.00,,,0.00,HR-IXPWINDi_r2_v1.2.,2013-05-24 20:43:00,
2013-05-24 16:48:00,60.5,38.4,30.11,North,5,3.0,10.0,44,0.00,,,0.00,HR-IXPWINDi_r2_v1.2.,2013-05-24 20:48:00,
2013-05-24 16:53:00,60.7,41.9,30.11,NNE,20,0.0,8.0,50,0.00,,,0.00,HR-IXPWINDi_r2_v1.2.,2013-05-24 20:53:00,
2013-05-24 16:59:00,61.1,42.8,30.11,NNW,338,2.0,8.0,51,0.00,,,0.00,HR-IXPWINDi_r2_v1.2.,2013-05-24 20:59:00,
2013-05-24 17:04:00,61.1,40.7,30.12,NNW,331,0.0,6.0,47,0.00,,,0.00,HR-IXPWINDi_r2_v1.2.,2013-05-24 21:04:00,
2013-05-24 17:09:00,60.8,39.9,30.12,NNE,13,4.0,8.0,46,0.00,,,0.00,HR-IXPWINDi_r2_v1.2.,2013-05-24 21:09:00,
2013-05-24 17:14:00,60.5,40.7,30.12,NW,308,2.0,8.0,48,0.00,,,0.00,HR-IXPWINDi_r2_v1.2.,2013-05-24 21:14:00,
2013-05-24 17:19:00,60.3,41.0,30.12,NE,44,3.0,8.0,49,0.00,,,0.00,HR-IXPWINDi_r2_v1.2.,2013-05-24 21:19:00,
2013-05-24 17:24:00,60.3,39.9,30.11,NNW,338,2.0,6.0,47,0.00,,,0.00,HR-IXPWINDi_r2_v1.2.,2013-05-24 21:24:00,
2013-05-24 17:29:00,60.4,41.1,30.11,NNE,23,5.0,6.0,49,0.00,,,0.00,HR-IXPWINDi_r2_v1.2.,2013-05-24 21:29:00,
2013-05-24 17:35:00,60.2,39.9,30.11,NNW,348,3.0,6.0,47,0.00,,,0.00,HR-IXPWINDi_r2_v1.2.,2013-05-24 21:35:00,
2013-05-24 17:40:00,60.0,40.2,30.12,NNW,348,2.0,10.0,48,0.00,,,0.00,HR-IXPWINDi_r2_v1.2.,2013-05-24 21:40:00,
2013-05-24 17:45:00,59.8,38.4,30.12,NNW,337,3.0,10.0,45,0.00,,,0.00,HR-IXPWINDi_r2_v1.2.,2013-05-24 21:45:00,
2013-05-24 17:50:00,59.6,38.2,30.12,NW,314,3.0,8.0,45,0.00,,,0.00,HR-IXPWINDi_r2_v1.2.,2013-05-24 21:50:00,
2013-05-24 17:55:00,59.4,38.0,30.12,NNW,344,3.0,14.0,45,0.00,,,0.00,HR-IXPWINDi_r2_v1.2.,2013-05-24 21:55:00,
2013-05-24 18:00:00,59.3,40.6,30.12,NNE,15,0.0,14.0,50,0.00,,,0.00,HR-IXPWINDi_r2_v1.2.,2013-05-24 22:00:00,
2013-05-24 18:05:00,59.2,37.8,30.12,NNW,330,1.0,5.0,45,0.00,,,0.00,HR-IXPWINDi_r2_v1.2.,2013-05-24 22:05:00,
2013-05-24 18:10:00,59.0,37.7,30.13,NNE,15,0.0,5.0,45,0.00,,,0.00,HR-IXPWINDi_r2_v1.2.,2013-05-24 22:10:00,
2013-05-24 18:15:00,59.0,37.7,30.13,North,355,3.0,11.0,45,0.00,,,0.00,HR-IXPWINDi_r2_v1.2.,2013-05-24 22:15:00,
2013-05-24 18:20:00,59.0,37.1,30.13,NNE,23,0.0,11.0,44,0.00,,,0.00,HR-IXPWINDi_r2_v1.2.,2013-05-24 22:20:00,
2013-05-24 18:26:00,58.9,35.8,30.13,NE,53,5.0,12.0,42,0.00,,,0.00,HR-IXPWINDi_r2_v1.2.,2013-05-24 22:26:00,
2013-05-24 18:31:00,58.7,36.8,30.13,NE,39,2.0,12.0,44,0.00,,,0.00,HR-IXPWINDi_r2_v1.2.,2013-05-24 22:31:00,
2013-05-24 18:36:00,58.6,38.9,30.13,WSW,240,2.0,8.0,48,0.00,,,0.00,HR-IXPWINDi_r2_v1.2.,2013-05-24 22:36:00,
2013-05-24 18:41:00,58.3,36.4,30.13,NNE,13,4.0,9.0,44,0.00,,,0.00,HR-IXPWINDi_r2_v1.2.,2013-05-24 22:41:00,
2013-05-24 18:46:00,58.2,36.9,30.13,NNE,22,2.0,9.0,45,0.00,,,0.00,HR-IXPWINDi_r2_v1.2.,2013-05-24 22:46:00,
2013-05-24 18:51:00,58.1,38.5,30.14,WNW,295,3.0,9.0,48,0.00,,,0.00,HR-IXPWINDi_r2_v1.2.,2013-05-24 22:51:00,
2013-05-24 18:57:00,58.0,36.7,30.15,SE,142,1.0,7.0,45,0.00,,,0.00,HR-IXPWINDi_r2_v1.2.,2013-05-24 22:57:00,
2013-05-24 19:02:00,57.9,37.8,30.14,SE,138,2.0,7.0,47,0.00,,,0.00,HR-IXPWINDi_r2_v1.2.,2013-05-24 23:02:00,
2013-05-24 19:07:00,57.8,37.1,30.15,ENE,60,3.0,7.0,46,0.00,,,0.00,HR-IXPWINDi_r2_v1.2.,2013-05-24 23:07:00,
2013-05-24 19:12:00,57.7,38.6,30.15,SE,126,1.0,5.0,49,0.00,,,0.00,HR-IXPWINDi_r2_v1.2.,2013-05-24 23:12:00,
2013-05-24 19:18:00,57.4,37.3,30.15,North,360,2.0,7.0,47,0.00,,,0.00,HR-IXPWINDi_r2_v1.2.,2013-05-24 23:18:00,
2013-05-24 19:23:00,57.2,37.1,30.16,NE,37,3.0,7.0,47,0.00,,,0.00,HR-IXPWINDi_r2_v1.2.,2013-05-24 23:23:00,
2013-05-24 19:28:00,57.1,36.5,30.17,NE,48,3.0,6.0,46,0.00,,,0.00,HR-IXPWINDi_r2_v1.2.,2013-05-24 23:28:00,
2013-05-24 19:33:00,57.0,38.0,30.17,North,5,0.0,6.0,49,0.00,,,0.00,HR-IXPWINDi_r2_v1.2.,2013-05-24 23:33:00,
2013-05-24 19:38:00,56.8,38.3,30.17,NW,313,3.0,6.0,50,0.00,,,0.00,HR-IXPWINDi_r2_v1.2.,2013-05-24 23:38:00,
2013-05-24 19:44:00,56.3,41.2,30.17,NE,41,4.0,6.0,57,0.00,,,0.00,HR-IXPWINDi_r2_v1.2.,2013-05-24 23:44:00,
2013-05-24 19:49:00,56.0,38.1,30.18,North,355,2.0,11.0,51,0.00,,,0.00,HR-IXPWINDi_r2_v1.2.,2013-05-24 23:49:00,
2013-05-24 19:54:00,55.7,36.8,30.18,NW,326,3.0,11.0,49,0.00,,,0.00,HR-IXPWINDi_r2_v1.2.,2013-05-24 23:54:00,
2013-05-24 19:59:00,55.5,38.1,30.19,North,355,4.0,7.0,52,0.00,,,0.00,HR-IXPWINDi_r2_v1.2.,2013-05-24 23:59:00,
2013-05-24 20:05:00,55.5,36.6,30.19,NNE,28,2.0,7.0,49,0.00,,,0.00,HR-IXPWINDi_r2_v1.2.,2013-05-25 00:05:00,
2013-05-24 20:10:00,55.2,36.8,30.19,NE,34,0.0,7.0,50,0.00,,,0.00,HR-IXPWINDi_r2_v1.2.,2013-05-25 00:10:00,
2013-05-24 20:16:00,55.0,36.7,30.19,NNW,341,0.0,7.0,50,0.00,,,0.00,HR-IXPWINDi_r2_v1.2.,2013-05-25 00:16:00,
2013-05-24 20:21:00,54.8,36.5,30.19,NE,41,0.0,4.0,50,0.00,,,0.00,HR-IXPWINDi_r2_v1.2.,2013-05-25 00:21:00,
2013-05-24 20:26:00,54.6,39.2,30.19,NE,41,0.0,4.0,56,0.00,,,0.00,HR-IXPWINDi_r2_v1.2.,2013-05-25 00:26:00,
2013-05-24 20:31:00,54.1,37.8,30.20,South,181,0.0,1.0,54,0.00,,,0.00,HR-IXPWINDi_r2_v1.2.,2013-05-25 00:31:00,
2013-05-24 20:36:00,53.8,39.8,30.20,ESE,104,0.0,1.0,59,0.00,,,0.00,HR-IXPWINDi_r2_v1.2.,2013-05-25 00:36:00,
2013-05-24 20:41:00,53.4,38.1,30.20,NNE,30,0.0,3.0,56,0.00,,,0.00,HR-IXPWINDi_r2_v1.2.,2013-05-25 00:41:00,
2013-05-24 20:47:00,53.2,39.6,30.20,ENE,70,0.0,3.0,60,0.00,,,0.00,HR-IXPWINDi_r2_v1.2.,2013-05-25 00:47:00,
2013-05-24 20:52:00,52.9,39.3,30.20,West,278,0.0,7.0,60,0.00,,,0.00,HR-IXPWINDi_r2_v1.2.,2013-05-25 00:52:00,
2013-05-24 20:57:00,52.7,37.4,30.20,NNE,27,1.0,7.0,56,0.00,,,0.00,HR-IXPWINDi_r2_v1.2.,2013-05-25 00:57:00,
2013-05-24 21:02:00,52.7,38.3,30.20,SSE,150,0.0,5.0,58,0.00,,,0.00,HR-IXPWINDi_r2_v1.2.,2013-05-25 01:02:00,
2013-05-24 21:07:00,52.6,41.5,30.20,SSE,150,0.0,3.0,66,0.00,,,0.00,HR-IXPWINDi_r2_v1.2.,2013-05-25 01:07:00,
2013-05-24 21:12:00,52.2,40.3,30.20,North,349,0.0,2.0,64,0.00,,,0.00,HR-IXPWINDi_r2_v1.2.,2013-05-25 01:12:00,
2013-05-24 21:17:00,51.9,39.2,30.21,NE,53,0.0,2.0,62,0.00,,,0.00,HR-IXPWINDi_r2_v1.2.,2013-05-25 01:17:00,
2013-05-24 21:23:00,51.5,41.2,30.21,East,96,0.0,2.0,68,0.00,,,0.00,HR-IXPWINDi_r2_v1.2.,2013-05-25 01:23:00,
2013-05-24 21:28:00,51.3,41.4,30.21,NNE,15,2.0,5.0,69,0.00,,,0.00,HR-IXPWINDi_r2_v1.2.,2013-05-25 01:28:00,
2013-05-24 21:33:00,51.3,38.7,30.20,SSE,163,0.0,5.0,62,0.00,,,0.00,HR-IXPWINDi_r2_v1.2.,2013-05-25 01:33:00,
2013-05-24 21:38:00,51.5,38.5,30.20,NNW,332,0.0,7.0,61,0.00,,,0.00,HR-IXPWINDi_r2_v1.2.,2013-05-25 01:38:00,
2013-05-24 21:43:00,51.8,38.7,30.21,East,101,0.0,7.0,61,0.00,,,0.00,HR-IXPWINDi_r2_v1.2.,2013-05-25 01:43:00,
2013-05-24 21:49:00,51.8,39.2,30.21,East,101,1.0,2.0,62,0.00,,,0.00,HR-IXPWINDi_r2_v1.2.,2013-05-25 01:49:00,
2013-05-24 21:54:00,51.5,41.2,30.21,East,101,0.0,2.0,68,0.00,,,0.00,HR-IXPWINDi_r2_v1.2.,2013-05-25 01:54:00,
2013-05-24 21:59:00,51.6,41.3,30.21,SE,131,0.0,8.0,68,0.00,,,0.00,HR-IXPWINDi_r2_v1.2.,2013-05-25 01:59:00,
2013-05-24 22:04:00,51.6,38.5,30.21,ENE,72,3.0,8.0,61,0.00,,,0.00,HR-IXPWINDi_r2_v1.2.,2013-05-25 02:04:00,
2013-05-24 22:10:00,51.8,40.0,30.21,East,90,0.0,5.0,64,0.00,,,0.00,HR-IXPWINDi_r2_v1.2.,2013-05-25 02:10:00,
2013-05-24 22:15:00,51.6,41.3,30.21,ENE,76,0.0,4.0,68,0.00,,,0.00,HR-IXPWINDi_r2_v1.2.,2013-05-25 02:15:00,
2013-05-24 22:20:00,51.2,39.8,30.21,NNE,30,0.0,3.0,65,0.00,,,0.00,HR-IXPWINDi_r2_v1.2.,2013-05-25 02:20:00,
2013-05-24 22:25:00,51.0,39.2,30.21,NE,34,0.0,2.0,64,0.00,,,0.00,HR-IXPWINDi_r2_v1.2.,2013-05-25 02:25:00,
2013-05-24 22:30:00,51.1,39.7,30.22,East,88,0.0,5.0,65,0.00,,,0.00,HR-IXPWINDi_r2_v1.2.,2013-05-25 02:30:00,
2013-05-24 22:35:00,51.1,39.7,30.22,NNE,15,0.0,5.0,65,0.00,,,0.00,HR-IXPWINDi_r2_v1.2.,2013-05-25 02:35:00,
2013-05-24 22:41:00,51.0,40.0,30.22,NE,42,0.0,3.0,66,0.00,,,0.00,HR-IXPWINDi_r2_v1.2.,2013-05-25 02:41:00,
2013-05-24 22:46:00,51.0,40.4,30.22,ENE,64,0.0,3.0,67,0.00,,,0.00,HR-IXPWINDi_r2_v1.2.,2013-05-25 02:46:00,
2013-05-24 22:51:00,51.0,41.9,30.22,ENE,59,0.0,3.0,71,0.00,,,0.00,HR-IXPWINDi_r2_v1.2.,2013-05-25 02:51:00,
2013-05-24 22:56:00,50.9,40.7,30.22,ENE,59,0.0,2.0,68,0.00,,,0.00,HR-IXPWINDi_r2_v1.2.,2013-05-25 02:56:00,
2013-05-24 23:01:00,50.9,40.7,30.22,ENE,59,0.0,1.0,68,0.00,,,0.00,HR-IXPWINDi_r2_v1.2.,2013-05-25 03:01:00,
2013-05-24 23:06:00,50.8,40.6,30.22,North,5,0.0,2.0,68,0.00,,,0.00,HR-IXPWINDi_r2_v1.2.,2013-05-25 03:06:00,
2013-05-24 23:11:00,50.9,39.9,30.22,North,360,1.0,2.0,66,0.00,,,0.00,HR-IXPWINDi_r2_v1.2.,2013-05-25 03:11:00,
2013-05-24 23:17:00,51.0,41.5,30.22,North,5,0.0,2.0,70,0.00,,,0.00,HR-IXPWINDi_r2_v1.2.,2013-05-25 03:17:00,
2013-05-24 23:22:00,50.7,40.5,30.22,NE,38,1.0,5.0,68,0.00,,,0.00,HR-IXPWINDi_r2_v1.2.,2013-05-25 03:22:00,
2013-05-24 23:27:00,50.5,41.0,30.21,NNW,348,1.0,5.0,70,0.00,,,0.00,HR-IXPWINDi_r2_v1.2.,2013-05-25 03:27:00,
2013-05-24 23:32:00,50.8,40.6,30.21,NW,313,2.0,6.0,68,0.00,,,0.00,HR-IXPWINDi_r2_v1.2.,2013-05-25 03:32:00,
2013-05-24 23:37:00,51.1,40.9,30.21,NNE,30,3.0,6.0,68,0.00,,,0.00,HR-IXPWINDi_r2_v1.2.,2013-05-25 03:37:00,
2013-05-24 23:43:00,51.0,42.2,30.21,NNW,345,0.0,4.0,72,0.00,,,0.00,HR-IXPWINDi_r2_v1.2.,2013-05-25 03:43:00,
2013-05-24 23:48:00,50.6,40.4,30.21,NW,304,1.0,4.0,68,0.00,,,0.00,HR-IXPWINDi_r2_v1.2.,2013-05-25 03:48:00,
2013-05-24 23:53:00,50.5,40.7,30.21,NE,42,2.0,3.0,69,0.00,,,0.00,HR-IXPWINDi_r2_v1.2.,2013-05-25 03:53:00,
2013-05-24 23:58:00,50.6,41.5,30.21,NNE,13,0.0,4.0,71,0.00,,,0.00,HR-IXPWINDi_r2_v1.2.,2013-05-25 03:58:00,